QPF
0.02 0.05 0.08 0.09 0.05 0.03 0.04 0.05 0.07 0.10 0.13 0.12 0.11 0.10 0.07 0.05 0.04 0.04 0.04 0.05 0.05 0.04 0.05 0.06 0.06 0.06 0.07 0.07 0.07 0.07 0.05 0.04 0.03 0.02 0.02 0.01 0.01 0.01 0.02 0.03 0.04 0.04 0.05
0.01 0.03 0.06 0.09 0.09 0.06 0.04 0.05 0.07 0.10 0.13 0.12 0.11 0.10 0.07 0.05 0.05 0.05 0.05 0.05 0.05 0.05 0.04 0.04 0.06 0.06 0.06 0.06 0.06 0.06 0.06 0.06 0.06 0.05 0.04 0.03 0.02 0.02 0.02 0.01 0.02 0.02 0.03
0.01 0.01 0.03 0.06 0.09 0.10 0.09 0.07 0.07 0.09 0.12 0.14 0.12 0.09 0.08 0.06 0.05 0.05 0.05 0.05 0.05 0.04 0.03 0.03 0.05 0.06 0.06 0.05 0.04 0.04 0.04 0.04 0.04 0.05 0.04 0.04 0.03 0.03 0.03 0.02 0.02 0.02 0.02
0.02 0.01 0.01 0.02 0.04 0.07 0.10 0.11 0.10 0.10 0.12 0.14 0.13 0.12 0.09 0.08 0.07 0.06 0.05 0.05 0.05 0.05 0.04 0.04 0.05 0.05 0.05 0.05 0.05 0.04 0.03 0.02 0.03 0.03 0.03 0.03 0.02 0.02 0.03 0.03 0.03 0.02 0.02
0.02 0.01 0.01 0.01 0.02 0.04 0.07 0.10 0.12 0.14 0.14 0.13 0.12 0.12 0.12 0.11 0.09 0.08 0.07 0.06 0.06 0.06 0.06 0.06 0.05 0.05 0.06 0.07 0.06 0.05 0.03 0.02 0.02 0.03 0.03 0.02 0.02 0.01 0.02 0.02 0.02 0.02 0.02
0.04 0.02 0.02 0.02 0.02 0.04 0.05 0.06 0.08 0.11 0.14 0.14 0.10 0.10 0.12 0.12 0.11 0.10 0.10 0.09 0.08 0.07 0.06 0.07 0.06 0.06 0.07 0.07 0.07 0.05 0.04 0.03 0.02 0.02 0.03 0.02 0.02 0.01 0.01 0.01 0.02 0.02 0.02
0.05 0.03 0.03 0.03 0.03 0.05 0.05 0.06 0.06 0.08 0.10 0.12 0.12 0.11 0.11 0.12 0.12 0.11 0.09 0.08 0.08 0.07 0.06 0.06 0.06 0.06 0.06 0.06 0.05 0.05 0.04 0.03 0.02 0.02 0.02 0.02 0.01 0.01 0.02 0.02 0.02 0.02 0.02
0.05 0.06 0.05 0.04 0.05 0.05 0.05 0.05 0.05 0.05 0.07 0.08 0.11 0.12 0.12 0.11 0.12 0.11 0.09 0.07 0.07 0.07 0.08 0.07 0.07 0.06 0.05 0.05 0.04 0.04 0.03 0.03 0.02 0.02 0.02 0.02 0.02 0.02 0.02 0.02 0.02 0.02 0.01
0.05 0.07 0.07 0.07 0.06 0.06 0.05 0.04 0.03 0.04 0.06 0.07 0.08 0.09 0.10 0.10 0.11 0.11 0.10 0.08 0.08 0.08 0.08 0.08 0.08 0.07 0.06 0.06 0.05 0.05 0.04 0.03 0.03 0.02 0.02 0.02 0.02 0.02 0.02 0.01 0.01 0.02 0.01
0.05 0.06 0.08 0.08 0.08 0.08 0.06 0.06 0.05 0.04 0.06 0.07 0.08 0.08 0.08 0.10 0.11 0.11 0.12 0.12 0.11 0.10 0.09 0.09 0.08 0.07 0.07 0.06 0.05 0.05 0.06 0.05 0.04 0.03 0.03 0.02 0.02 0.01 0.01 0.01 0.01 0.02 0.02
0.06 0.07 0.08 0.07 0.07 0.07 0.07 0.07 0.07 0.06 0.06 0.07 0.08 0.08 0.08 0.09 0.11 0.11 0.11 0.11 0.12 0.11 0.10 0.09 0.08 0.07 0.07 0.07 0.07 0.06 0.05 0.04 0.04 0.04 0.04 0.04 0.03 0.02 0.02 0.01 0.01 0.01 0.02
0.09 0.09 0.07 0.07 0.06 0.06 0.07 0.07 0.07 0.07 0.07 0.08 0.08 0.08 0.08 0.09 0.09 0.08 0.09 0.09 0.10 0.10 0.10 0.10 0.09 0.09 0.08 0.09 0.09 0.10 0.09 0.07 0.06 0.05 0.05 0.04 0.04 0.04 0.03 0.02 0.02 0.02 0.02
0.11 0.11 0.09 0.07 0.07 0.07 0.07 0.07 0.07 0.06 0.06 0.06 0.06 0.06 0.07 0.07 0.07 0.07 0.07 0.08 0.08 0.08 0.08 0.08 0.08 0.08 0.08 0.09 0.10 0.10 0.09 0.08 0.08 0.08 0.07 0.06 0.05 0.04 0.04 0.03 0.03 0.03 0.03
0.13 0.12 0.10 0.09 0.09 0.07 0.06 0.06 0.06 0.06 0.06 0.06 0.05 0.05 0.06 0.07 0.06 0.06 0.06 0.06 0.07 0.07 0.07 0.07 0.06 0.05 0.05 0.06 0.08 0.09 0.10 0.10 0.10 0.10 0.08 0.07 0.06 0.05 0.05 0.04 0.03 0.03 0.03
0.10 0.10 0.10 0.10 0.10 0.08 0.07 0.07 0.07 0.07 0.07 0.06 0.06 0.06 0.06 0.07 0.07 0.06 0.05 0.06 0.06 0.06 0.06 0.05 0.05 0.04 0.04 0.04 0.05 0.06 0.07 0.08 0.08 0.08 0.07 0.06 0.05 0.04 0.04 0.04 0.03 0.03 0.02
0.10 0.10 0.09 0.09 0.09 0.07 0.06 0.07 0.08 0.07 0.07 0.05 0.04 0.04 0.04 0.05 0.06 0.05 0.04 0.05 0.05 0.05 0.05 0.05 0.05 0.04 0.04 0.04 0.03 0.03 0.04 0.04 0.05 0.05 0.05 0.05 0.04 0.03 0.03 0.03 0.02 0.02 0.02
0.12 0.10 0.08 0.08 0.08 0.07 0.05 0.05 0.06 0.06 0.05 0.04 0.03 0.03 0.03 0.03 0.03 0.03 0.03 0.03 0.03 0.03 0.03 0.04 0.04 0.04 0.04 0.03 0.03 0.03 0.03 0.03 0.03 0.03 0.03 0.03 0.03 0.03 0.02 0.02 0.02 0.02 0.02
0.11 0.10 0.07 0.07 0.07 0.07 0.05 0.05 0.04 0.03 0.04 0.04 0.03 0.03 0.02 0.02 0.02 0.02 0.03 0.03 0.03 0.03 0.03 0.03 0.04 0.04 0.04 0.04 0.03 0.03 0.02 0.03 0.02 0.02 0.02 0.02 0.02 0.02 0.02 0.02 0.01 0.01 0.01
0.07 0.08 0.07 0.06 0.06 0.06 0.05 0.04 0.04 0.03 0.03 0.03 0.03 0.03 0.03 0.02 0.02 0.02 0.02 0.02 0.03 0.03 0.03 0.03 0.03 0.03 0.04 0.04 0.03 0.03 0.03 0.02 0.02 0.01 0.01 0.01 0.01 0.01 0.01 0.01 0.01 0.01 0.01
0.04 0.05 0.05 0.05 0.04 0.04 0.04 0.03 0.03 0.03 0.03 0.03 0.03 0.03 0.03 0.02 0.02 0.02 0.02 0.03 0.03 0.03 0.03 0.03 0.03 0.03 0.03 0.03 0.03 0.03 0.02 0.02 0.02 0.01 0.01 0.01 0.01 0.01 0.01 0.01 0.01 0.01 0.01
0.02 0.03 0.03 0.04 0.04 0.04 0.04 0.03 0.03 0.03 0.03 0.03 0.03 0.02 0.02 0.02 0.02 0.02 0.02 0.02 0.02 0.03 0.03 0.03 0.02 0.02 0.02 0.02 0.02 0.02 0.02 0.02 0.02 0.01 0.01 0.01 0.01 0.01 0.01 0.01 0.01 0.01 0.01
0.01 0.02 0.02 0.03 0.03 0.03 0.04 0.03 0.03 0.02 0.02 0.02 0.02 0.02 0.02 0.02 0.02 0.02 0.02 0.02 0.02 0.02 0.02 0.03 0.03 0.02 0.02 0.02 0.03 0.03 0.03 0.02 0.02 0.01 0.01 0.01 0.01 0.01 0.01 0.01 0.01 0.01 0.01
0.01 0.01 0.01 0.02 0.02 0.03 0.03 0.03 0.03 0.02 0.03 0.03 0.02 0.02 0.02 0.02 0.02 0.02 0.02 0.02 0.02 0.02 0.02 0.02 0.02 0.02 0.02 0.02 0.02 0.02 0.02 0.02 0.02 0.02 0.01 0.01 0.01 0.01 0.01 0.01 0.01 0.01 0.01
0.01 0.01 0.01 0.01 0.01 0.02 0.02 0.03 0.03 0.03 0.02 0.02 0.02 0.02 0.02 0.02 0.02 0.02 0.02 0.02 0.02 0.02 0.02 0.02 0.02 0.02 0.02 0.01 0.01 0.01 0.01 0.02 0.02 0.01 0.01 0.01 0.01 0.01 0.01 0.01 0.01 0.01 0.01
0.01 0.01 0.01 0.01 0.01 0.01 0.02 0.02 0.02 0.02 0.02 0.02 0.02 0.02 0.02 0.02 0.02 0.02 0.02 0.02 0.02 0.02 0.02 0.02 0.02 0.02 0.01 0.01 0.01 0.01 0.01 0.01 0.01 0.01 0.02 0.02 0.01 0.01 0.01 0.01 0.01 0.01 0.01
0.01 0.01 0.01 0.02 0.02 0.02 0.02 0.02 0.02 0.02 0.02 0.02 0.02 0.02 0.02 0.02 0.02 0.03 0.02 0.02 0.02 0.02 0.02 0.02 0.02 0.02 0.02 0.01 0.01 0.01 0.01 0.01 0.01 0.01 0.01 0.02 0.02 0.01 0.01 0.01 0.01 0.01 0.01
MSLP
1034.61 1034.71 1034.71 1034.62 1034.46 1034.26 1034.04 1033.80 1033.55 1033.28 1032.96 1032.57 1032.11 1031.57 1030.97 1030.32 1029.66 1029.01 1028.40 1027.84 1027.33 1026.85 1026.36 1025.82 1025.19 1024.45 1023.56 1022.53 1021.38 1020.11 1018.78 1017.42 1016.06 1014.73 1013.46 1012.26 1011.14 1010.10 1009.14 1008.25 1007.43 1006.67 1005.95
1034.62 1034.74 1034.75 1034.68 1034.53 1034.35 1034.13 1033.91 1033.67 1033.40 1033.08 1032.70 1032.23 1031.67 1031.04 1030.36 1029.65 1028.95 1028.29 1027.68 1027.11 1026.58 1026.05 1025.48 1024.84 1024.10 1023.23 1022.23 1021.11 1019.89 1018.59 1017.25 1015.90 1014.56 1013.27 1012.02 1010.83 1009.71 1008.67 1007.69 1006.79 1005.95 1005.17
1034.54 1034.67 1034.70 1034.65 1034.53 1034.36 1034.18 1033.97 1033.75 1033.49 1033.17 1032.79 1032.31 1031.73 1031.08 1030.36 1029.61 1028.87 1028.15 1027.47 1026.85 1026.25 1025.66 1025.04 1024.36 1023.60 1022.72 1021.73 1020.63 1019.43 1018.17 1016.87 1015.55 1014.24 1012.94 1011.69 1010.48 1009.32 1008.22 1007.19 1006.22 1005.32 1004.49
1034.38 1034.53 1034.59 1034.57 1034.49 1034.36 1034.20 1034.03 1033.82 1033.57 1033.26 1032.87 1032.37 1031.77 1031.09 1030.33 1029.55 1028.75 1027.97 1027.23 1026.53 1025.86 1025.20 1024.51 1023.77 1022.95 1022.04 1021.03 1019.93 1018.75 1017.52 1016.26 1014.99 1013.72 1012.47 1011.26 1010.07 1008.93 1007.83 1006.78 1005.79 1004.86 1003.98
1034.19 1034.38 1034.47 1034.49 1034.46 1034.37 1034.26 1034.11 1033.92 1033.68 1033.36 1032.94 1032.42 1031.79 1031.07 1030.27 1029.43 1028.59 1027.75 1026.95 1026.18 1025.43 1024.68 1023.90 1023.08 1022.19 1021.22 1020.17 1019.04 1017.87 1016.66 1015.44 1014.23 1013.03 1011.87 1010.73 1009.63 1008.55 1007.51 1006.50 1005.53 1004.60 1003.70
1034.00 1034.23 1034.37 1034.45 1034.46 1034.43 1034.35 1034.23 1034.05 1033.81 1033.47 1033.03 1032.46 1031.79 1031.02 1030.17 1029.28 1028.38 1027.49 1026.62 1025.78 1024.95 1024.12 1023.26 1022.35 1021.38 1020.33 1019.22 1018.05 1016.86 1015.66 1014.48 1013.33 1012.22 1011.16 1010.14 1009.16 1008.21 1007.28 1006.36 1005.45 1004.55 1003.66
1033.84 1034.12 1034.32 1034.44 1034.51 1034.52 1034.48 1034.37 1034.20 1033.94 1033.57 1033.08 1032.47 1031.74 1030.92 1030.02 1029.08 1028.13 1027.19 1026.27 1025.37 1024.48 1023.58 1022.64 1021.64 1020.59 1019.46 1018.27 1017.06 1015.83 1014.63 1013.47 1012.38 1011.36 1010.42 1009.54 1008.71 1007.91 1007.12 1006.33 1005.52 1004.69 1003.83
1033.73 1034.07 1034.31 1034.49 1034.59 1034.64 1034.61 1034.51 1034.33 1034.04 1033.63 1033.09 1032.42 1031.64 1030.76 1029.81 1028.83 1027.84 1026.87 1025.91 1024.98 1024.05 1023.10 1022.10 1021.04 1019.92 1018.72 1017.47 1016.20 1014.93 1013.71 1012.57 1011.52 1010.57 1009.74 1008.99 1008.31 1007.67 1007.04 1006.39 1005.70 1004.95 1004.14
1033.68 1034.07 1034.35 1034.56 1034.69 1034.74 1034.71 1034.60 1034.39 1034.06 1033.60 1033.01 1032.29 1031.45 1030.53 1029.55 1028.54 1027.53 1026.55 1025.59 1024.65 1023.71 1022.75 1021.73 1020.64 1019.47 1018.23 1016.93 1015.60 1014.30 1013.05 1011.90 1010.87 1009.97 1009.21 1008.56 1008.01 1007.51 1007.01 1006.49 1005.92 1005.26 1004.51
1033.70 1034.11 1034.42 1034.63 1034.75 1034.79 1034.74 1034.59 1034.34 1033.96 1033.46 1032.82 1032.05 1031.18 1030.23 1029.24 1028.23 1027.23 1026.27 1025.34 1024.43 1023.51 1022.57 1021.57 1020.49 1019.32 1018.06 1016.73 1015.37 1014.03 1012.75 1011.57 1010.53 1009.65 1008.92 1008.34 1007.86 1007.45 1007.05 1006.64 1006.15 1005.58 1004.88
1033.76 1034.17 1034.47 1034.66 1034.75 1034.75 1034.65 1034.46 1034.16 1033.74 1033.19 1032.52 1031.73 1030.84 1029.89 1028.91 1027.93 1026.97 1026.06 1025.18 1024.33 1023.49 1022.61 1021.66 1020.63 1019.49 1018.24 1016.92 1015.55 1014.19 1012.87 1011.67 1010.60 1009.69 1008.95 1008.37 1007.91 1007.53 1007.19 1006.82 1006.39 1005.88 1005.24
1033.82 1034.21 1034.47 1034.61 1034.65 1034.59 1034.44 1034.20 1033.85 1033.39 1032.82 1032.13 1031.34 1030.47 1029.54 1028.60 1027.67 1026.78 1025.94 1025.15 1024.39 1023.63 1022.84 1021.98 1021.03 1019.95 1018.77 1017.48 1016.13 1014.76 1013.43 1012.19 1011.07 1010.11 1009.33 1008.70 1008.20 1007.80 1007.44 1007.08 1006.67 1006.18 1005.59
1033.85 1034.19 1034.39 1034.48 1034.45 1034.33 1034.12 1033.83 1033.45 1032.97 1032.39 1031.71 1030.94 1030.11 1029.24 1028.36 1027.50 1026.69 1025.94 1025.24 1024.58 1023.93 1023.25 1022.49 1021.64 1020.66 1019.55 1018.33 1017.03 1015.68 1014.35 1013.08 1011.92 1010.90 1010.04 1009.33 1008.76 1008.29 1007.87 1007.47 1007.03 1006.54 1005.97
1033.78 1034.07 1034.21 1034.23 1034.14 1033.97 1033.72 1033.39 1032.99 1032.51 1031.95 1031.31 1030.59 1029.82 1029.02 1028.22 1027.45 1026.73 1026.06 1025.46 1024.90 1024.35 1023.77 1023.12 1022.37 1021.50 1020.50 1019.36 1018.13 1016.83 1015.52 1014.25 1013.06 1011.98 1011.04 1010.24 1009.57 1009.00 1008.49 1008.01 1007.53 1007.01 1006.44
1033.58 1033.81 1033.90 1033.87 1033.74 1033.54 1033.27 1032.94 1032.55 1032.10 1031.58 1030.99 1030.34 1029.64 1028.93 1028.21 1027.52 1026.88 1026.30 1025.78 1025.29 1024.83 1024.33 1023.78 1023.14 1022.37 1021.47 1020.44 1019.29 1018.07 1016.81 1015.56 1014.36 1013.25 1012.25 1011.37 1010.60 1009.92 1009.32 1008.75 1008.19 1007.62 1007.03
1033.22 1033.41 1033.47 1033.41 1033.27 1033.07 1032.81 1032.51 1032.16 1031.77 1031.31 1030.80 1030.23 1029.62 1028.98 1028.35 1027.73 1027.16 1026.64 1026.16 1025.73 1025.32 1024.88 1024.40 1023.83 1023.16 1022.36 1021.43 1020.38 1019.25 1018.06 1016.87 1015.70 1014.58 1013.55 1012.61 1011.77 1011.01 1010.31 1009.66 1009.03 1008.40 1007.78
1032.69 1032.87 1032.93 1032.89 1032.77 1032.61 1032.40 1032.16 1031.87 1031.55 1031.17 1030.74 1030.25 1029.72 1029.17 1028.60 1028.04 1027.52 1027.03 1026.58 1026.17 1025.78 1025.37 1024.92 1024.40 1023.79 1023.07 1022.23 1021.28 1020.25 1019.15 1018.03 1016.92 1015.84 1014.81 1013.86 1012.97 1012.16 1011.39 1010.67 1009.98 1009.31 1008.65
1032.04 1032.23 1032.32 1032.33 1032.28 1032.18 1032.05 1031.88 1031.68 1031.44 1031.14 1030.79 1030.39 1029.93 1029.44 1028.92 1028.41 1027.91 1027.43 1026.99 1026.57 1026.17 1025.75 1025.31 1024.81 1024.23 1023.56 1022.79 1021.93 1020.99 1019.99 1018.96 1017.92 1016.90 1015.92 1014.99 1014.10 1013.27 1012.48 1011.72 1010.99 1010.28 1009.59
1031.30 1031.54 1031.69 1031.78 1031.81 1031.80 1031.76 1031.68 1031.57 1031.40 1031.18 1030.90 1030.56 1030.16 1029.72 1029.25 1028.76 1028.27 1027.80 1027.34 1026.90 1026.46 1026.02 1025.55 1025.04 1024.47 1023.82 1023.09 1022.29 1021.43 1020.52 1019.58 1018.63 1017.70 1016.78 1015.90 1015.06 1014.24 1013.46 1012.70 1011.96 1011.24 1010.54
1030.54 1030.84 1031.08 1031.26 1031.39 1031.48 1031.52 1031.53 1031.49 1031.39 1031.23 1031.00 1030.70 1030.35 1029.94 1029.49 1029.03 1028.55 1028.07 1027.59 1027.12 1026.65 1026.17 1025.66 1025.12 1024.52 1023.87 1023.16 1022.40 1021.59 1020.75 1019.89 1019.03 1018.18 1017.35 1016.54 1015.76 1015.00 1014.26 1013.53 1012.82 1012.11 1011.42
1029.80 1030.18 1030.51 1030.78 1031.01 1031.19 1031.31 1031.39 1031.39 1031.34 1031.21 1031.01 1030.74 1030.41 1030.02 1029.60 1029.15 1028.68 1028.20 1027.71 1027.22 1026.72 1026.19 1025.64 1025.05 1024.43 1023.75 1023.03 1022.28 1021.50 1020.70 1019.91 1019.12 1018.35 1017.60 1016.87 1016.17 1015.49 1014.82 1014.15 1013.49 1012.84 1012.19
1029.11 1029.57 1029.98 1030.35 1030.66 1030.90 1031.09 1031.20 1031.23 1031.19 1031.07 1030.87 1030.60 1030.28 1029.91 1029.51 1029.07 1028.62 1028.16 1027.67 1027.17 1026.65 1026.10 1025.51 1024.88 1024.21 1023.50 1022.75 1021.99 1021.21 1020.44 1019.68 1018.94 1018.24 1017.57 1016.93 1016.31 1015.72 1015.13 1014.55 1013.97 1013.39 1012.81
1028.47 1029.00 1029.49 1029.92 1030.29 1030.59 1030.80 1030.92 1030.95 1030.90 1030.76 1030.54 1030.27 1029.94 1029.58 1029.19 1028.79 1028.36 1027.93 1027.46 1026.97 1026.45 1025.88 1025.27 1024.60 1023.89 1023.14 1022.36 1021.57 1020.79 1020.01 1019.27 1018.58 1017.92 1017.31 1016.75 1016.22 1015.71 1015.22 1014.73 1014.24 1013.75 1013.25
1027.84 1028.43 1028.98 1029.46 1029.87 1030.19 1030.41 1030.52 1030.53 1030.44 1030.27 1030.03 1029.73 1029.40 1029.05 1028.68 1028.30 1027.92 1027.52 1027.09 1026.63 1026.12 1025.55 1024.92 1024.24 1023.50 1022.72 1021.91 1021.09 1020.28 1019.50 1018.77 1018.09 1017.47 1016.92 1016.42 1015.96 1015.54 1015.14 1014.74 1014.35 1013.95 1013.54
1027.19 1027.82 1028.41 1028.93 1029.36 1029.69 1029.89 1029.98 1029.95 1029.83 1029.62 1029.35 1029.03 1028.70 1028.35 1028.01 1027.66 1027.32 1026.96 1026.58 1026.15 1025.67 1025.12 1024.49 1023.80 1023.04 1022.23 1021.40 1020.56 1019.73 1018.95 1018.22 1017.56 1016.97 1016.46 1016.01 1015.61 1015.26 1014.94 1014.62 1014.31 1014.00 1013.68
1026.47 1027.14 1027.75 1028.29 1028.73 1029.05 1029.24 1029.30 1029.25 1029.09 1028.85 1028.55 1028.22 1027.88 1027.55 1027.23 1026.92 1026.62 1026.31 1025.96 1025.57 1025.12 1024.59 1023.98 1023.28 1022.52 1021.70 1020.85 1020.00 1019.17 1018.39 1017.66 1017.02 1016.46 1015.97 1015.57 1015.23 1014.93 1014.66 1014.41 1014.17 1013.92 1013.67
Thickness
5516 5517 5518 5521 5523 5524 5526 5529 5532 5535 5539 5543 5544 5545 5545 5545 5545 5544 5542 5541 5540 5539 5537 5536 5534 5532 5530 5527 5525 5523 5521 5520 5519 5518 5517 5515 5513 5512 5512 5511 5510 5509 5508
5506 5507 5508 5510 5512 5514 5516 5519 5522 5525 5529 5533 5535 5537 5538 5537 5536 5535 5534 5533 5532 5531 5529 5527 5525 5523 5520 5517 5515 5513 5511 5510 5508 5507 5505 5503 5502 5500 5500 5499 5498 5496 5495
5495 5496 5498 5499 5501 5504 5506 5509 5512 5516 5520 5523 5526 5528 5528 5528 5528 5527 5525 5524 5523 5522 5521 5519 5517 5514 5511 5508 5505 5503 5501 5499 5498 5497 5494 5491 5489 5488 5487 5487 5485 5484 5483
5483 5485 5487 5489 5491 5494 5497 5499 5503 5507 5511 5513 5516 5517 5518 5518 5518 5518 5517 5516 5514 5513 5512 5510 5508 5506 5504 5500 5496 5493 5491 5489 5487 5485 5483 5480 5478 5476 5475 5474 5474 5472 5471
5472 5475 5476 5478 5481 5484 5487 5490 5494 5497 5501 5504 5505 5507 5508 5508 5509 5509 5509 5507 5505 5504 5502 5501 5499 5498 5496 5492 5489 5485 5482 5479 5476 5474 5472 5470 5468 5465 5464 5462 5462 5461 5460
5462 5464 5465 5467 5471 5474 5477 5480 5484 5487 5490 5492 5494 5496 5497 5500 5501 5501 5501 5498 5497 5495 5493 5491 5489 5487 5486 5483 5481 5478 5475 5472 5468 5465 5464 5462 5459 5457 5454 5453 5450 5450 5450
5453 5455 5456 5458 5462 5465 5468 5470 5473 5475 5478 5481 5483 5485 5488 5490 5492 5492 5491 5490 5487 5485 5482 5481 5479 5477 5475 5472 5470 5468 5465 5463 5461 5459 5456 5454 5451 5449 5447 5444 5441 5439 5438
5443 5445 5447 5449 5452 5455 5458 5460 5462 5464 5466 5470 5472 5475 5477 5479 5482 5482 5480 5478 5476 5474 5472 5471 5469 5467 5465 5463 5460 5457 5454 5452 5451 5449 5448 5446 5443 5440 5438 5435 5430 5427 5426
5435 5436 5439 5441 5443 5446 5448 5449 5451 5453 5455 5458 5460 5462 5464 5467 5469 5469 5468 5466 5464 5463 5462 5461 5459 5458 5456 5455 5451 5448 5445 5443 5441 5439 5438 5436 5434 5431 5427 5423 5419 5416 5415
5427 5429 5431 5433 5435 5437 5438 5439 5440 5442 5444 5446 5447 5449 5451 5453 5456 5456 5456 5454 5453 5451 5450 5449 5449 5449 5447 5445 5443 5441 5437 5435 5432 5429 5426 5424 5421 5418 5416 5413 5409 5406 5403
5421 5422 5424 5425 5426 5427 5428 5429 5430 5432 5434 5435 5437 5438 5440 5442 5443 5444 5444 5443 5441 5440 5439 5438 5438 5439 5438 5436 5434 5432 5432 5428 5424 5420 5416 5413 5410 5407 5404 5401 5398 5396 5392
5413 5415 5416 5416 5417 5418 5418 5418 5420 5423 5424 5425 5426 5427 5428 5430 5431 5432 5433 5432 5431 5430 5429 5428 5428 5427 5427 5426 5424 5422 5420 5417 5412 5408 5405 5402 5398 5396 5393 5391 5388 5385 5383
5403 5405 5406 5407 5408 5408 5408 5409 5411 5412 5413 5414 5417 5417 5417 5418 5419 5420 5421 5421 5420 5419 5418 5417 5416 5415 5414 5413 5411 5409 5406 5403 5400 5397 5394 5391 5387 5384 5382 5379 5377 5375 5372
5394 5395 5396 5397 5398 5398 5399 5400 5401 5401 5402 5404 5405 5406 5406 5407 5408 5409 5409 5409 5409 5408 5406 5404 5403 5402 5400 5399 5396 5394 5391 5389 5388 5384 5381 5379 5377 5374 5371 5369 5366 5364 5362
5386 5386 5386 5387 5387 5387 5388 5388 5389 5390 5392 5394 5394 5395 5395 5396 5397 5398 5397 5397 5397 5396 5394 5392 5389 5388 5386 5383 5381 5379 5377 5375 5374 5371 5369 5367 5365 5363 5360 5358 5355 5353 5350
5376 5376 5377 5377 5377 5377 5377 5377 5378 5380 5381 5383 5384 5385 5386 5386 5387 5387 5386 5386 5385 5385 5383 5380 5377 5374 5373 5371 5369 5367 5365 5363 5361 5359 5357 5355 5352 5351 5348 5346 5344 5341 5338
5368 5368 5368 5368 5368 5368 5368 5369 5369 5370 5371 5372 5374 5375 5376 5376 5375 5375 5375 5374 5374 5373 5370 5368 5365 5363 5361 5359 5357 5356 5353 5351 5349 5347 5345 5342 5340 5338 5336 5335 5332 5329 5326
5360 5360 5360 5359 5359 5359 5360 5360 5361 5360 5360 5360 5361 5363 5364 5364 5363 5363 5363 5362 5360 5359 5357 5356 5354 5352 5350 5348 5346 5344 5342 5340 5338 5336 5333 5331 5328 5326 5324 5321 5319 5317 5316
5353 5352 5351 5351 5350 5350 5351 5351 5350 5350 5349 5348 5348 5349 5351 5351 5351 5351 5351 5349 5348 5347 5346 5345 5343 5342 5340 5338 5336 5334 5332 5330 5327 5324 5322 5320 5317 5315 5312 5310 5308 5308 5306
5345 5345 5344 5343 5342 5342 5341 5340 5340 5339 5338 5338 5337 5338 5338 5339 5338 5338 5338 5337 5337 5336 5335 5334 5333 5332 5330 5329 5326 5324 5322 5320 5317 5315 5312 5310 5307 5304 5301 5299 5298 5297 5296
5337 5336 5336 5335 5333 5333 5332 5331 5330 5330 5329 5329 5328 5328 5330 5328 5327 5326 5326 5326 5326 5326 5325 5324 5323 5321 5320 5318 5316 5314 5312 5309 5307 5304 5302 5299 5296 5294 5292 5290 5289 5288 5287
5330 5329 5328 5326 5325 5324 5324 5323 5322 5321 5320 5319 5319 5318 5319 5317 5316 5316 5316 5316 5316 5316 5315 5314 5313 5311 5310 5308 5307 5305 5302 5300 5297 5294 5292 5290 5287 5285 5284 5282 5281 5279 5279
5323 5321 5320 5318 5317 5317 5315 5314 5313 5312 5311 5311 5310 5310 5309 5308 5307 5307 5307 5306 5306 5306 5306 5305 5303 5302 5300 5299 5297 5295 5293 5291 5288 5286 5283 5281 5279 5278 5276 5274 5272 5271 5270
5315 5314 5312 5311 5309 5308 5307 5306 5305 5304 5304 5303 5302 5302 5300 5300 5299 5298 5298 5298 5297 5297 5297 5296 5295 5294 5292 5290 5288 5286 5284 5282 5280 5278 5276 5274 5272 5270 5269 5267 5265 5264 5264
5308 5306 5305 5304 5302 5301 5300 5299 5298 5297 5296 5296 5295 5294 5292 5292 5291 5290 5290 5290 5289 5289 5288 5288 5287 5286 5284 5282 5280 5278 5276 5275 5273 5271 5269 5267 5265 5264 5262 5261 5259 5259 5258
5301 5299 5298 5297 5296 5295 5293 5292 5291 5290 5289 5289 5288 5287 5285 5284 5283 5282 5282 5281 5281 5280 5280 5279 5278 5277 5276 5274 5272 5271 5269 5268 5267 5265 5264 5262 5260 5258 5257 5256 5255 5254 5253